Regional Weather Roundup
Issued by NWS

Home | Current Version | Previous Version | Graphics & Text | Print | Product List | Glossary On
Versions: 1 2 3 4 5 6 7 8 9 10 11 12 13 14 15 16 17 18 19 20 21 22 23 24 25 26 27 28 29 30 31 32 33 34 35 36 37 38 39 40 41 42 43 44 45 46 47 48 49 50
000
ASUS43 KDMX 060703
RWRIA

WEATHER ROUNDUP FOR IOWA
NATIONAL WEATHER SERVICE DES MOINES IA
200 AM CDT FRI MAY 06 2016

NOTE: "FAIR" INDICATES FEW OR NO CLOUDS BELOW 12,000 FEET WITH NO
SIGNIFICANT WEATHER AND/OR OBSTRUCTIONS TO VISIBILITY.

* - THESE STATIONS ARE NOT NWS STATIONS...THUS NOT UNDER NWS
QUALITY CONTROL.  THEY ALSO DO NOT REPORT WEATHER SUCH
AS PRECIPITATION OR FOG.

IAZ001>003-012>014-020>022-031>034-043>046-060800-
   NORTHWEST IOWA

CITY           SKY/WX    TMP DP  RH WIND       PRES   REMARKS
CARROLL *      PTCLDY    59  41  51 SW13      29.98S
CHEROKEE *     CLEAR     50  44  80 CALM      29.97S
DENISON *      CLEAR     57  43  58 CALM      29.98S
LE MARS *      CLEAR     54  45  71 CALM      29.97S
ORANGE CITY *  CLEAR     55  45  67 S7        29.96S
SHELDON *      CLEAR     59  43  55 SW10      29.95R
SIOUX CITY     PTCLDY    55  44  66 SE8       29.96F
SPENCER        CLEAR     54  41  61 SW7       29.96S
STORM LAKE *   CLEAR     57  41  54 SW9       29.99S
$$

IAZ055>058-069>071-079>083-090>094-060800-
   SOUTHWEST IOWA

CITY           SKY/WX    TMP DP  RH WIND       PRES   REMARKS
ATLANTIC *     CLEAR     50  43  76 SW5       30.01F
AUDUBON *      CLEAR     50  43  76 CALM      30.01F
CLARINDA *       N/A     50  45  81 MISG      30.04S
COUNCIL BLFS * CLEAR     61  43  51 S9        30.01S
CRESTON *      PTCLDY    54  43  66 SW7       30.03F
HARLAN  *      PTCLDY    52  43  71 SW5       30.04S
LAMONI         CLEAR     53  40  61 SW9       30.03S
RED OAK *      PTCLDY    50  45  81 CALM      30.02S
SHENANDOAH *   PTCLDY    55  45  67 CALM      30.02F
$$

IAZ047>049-059>061-072>074-084-060800-
   CENTRAL IOWA

CITY           SKY/WX    TMP DP  RH WIND       PRES   REMARKS
AMES           PTCLDY    50  41  71 SW5       29.98S
ANKENY *       PTCLDY    54  41  62 S3        29.99F
BOONE *        CLEAR     57  41  54 SW5       29.98S
CHARITON *     CLEAR     54  37  54 SW7       30.01S
DES MOINES     CLEAR     55  41  59 SW6       30.00S
GRINNELL*      CLEAR     54  36  50 SW8       30.00S
KNOXVILLE *    CLEAR     54  37  54 SW8       29.99R
MARSHALLTOWN   CLEAR     54  37  52 S6        29.98R
NEWTON *       CLEAR     54  37  54 SW8       29.99S
PELLA *        CLEAR     54  37  52 SW7       30.01S
PERRY *          N/A     54  43  66 SW7       29.99S
$$

IAZ004>006-015-016-023>025-035-036-060800-
   NORTH CENTRAL IOWA

CITY           SKY/WX    TMP DP  RH WIND       PRES   REMARKS
ALGONA *       CLEAR     57  43  58 SW10      29.96F
CLARION *      PTCLDY    52  39  62 S8        29.97S
ESTHERVILLE    CLEAR     58  41  53 SW12      29.94F
FORT DODGE *   PTCLDY    50  39  66 S3        29.97S
MASON CITY     PTCLDY    55  40  56 SW6       29.96F
FOREST CITY *    N/A     45  41  87 CALM      29.95F
WEBSTER CITY * CLEAR     50  41  71 S9        29.96S
IOWA FALLS *     N/A     54  41  62 SW9       29.99S
$$

IAZ007>011-017>019-026>030-037>042-050>054-066-060800-
   NORTHEAST IOWA

CITY           SKY/WX    TMP DP  RH WIND       PRES   REMARKS
CEDAR RAPIDS   CLEAR     48  39  71 SW6       29.97F
CHARLES CITY * CLEAR     54  37  54 SW7       29.95F
CLINTON *      CLEAR     50  41  71 SW3       29.99S
DECORAH *      PTCLDY    55  36  47 SW5       29.93F
DUBUQUE        MOCLDY    50  39  66 S6        29.97F
MONTICELLO *   CLOUDY    46  41  81 CALM      29.98S
OELWEIN *      CLEAR     50  37  62 S8        29.97S
WATERLOO       CLEAR     54  38  54 SW7       29.96F
$$

IAZ064-065-067-068-078-060800-
   EAST CENTRAL IOWA

CITY           SKY/WX    TMP DP  RH WIND       PRES   REMARKS
DAVENPORT      CLEAR     48  39  71 SW5       30.01S
IOWA CITY      CLEAR     47  40  76 CALM      30.00F
MT. PLEASANT * CLEAR     52  41  66 SW5       30.00F
MUSCATINE *    CLEAR     48  41  76 CALM      30.00F
QUAD CITIES    CLEAR     45  41  86 CALM      29.99S
$$

IAZ062-063-075>077-085>089-095>099-060800-
   SOUTHEAST IOWA

CITY           SKY/WX    TMP DP  RH WIND       PRES   REMARKS
BURLINGTON     CLEAR     50  39  66 CALM      30.00F
FAIRFIELD *    CLEAR     50  37  62 SW6       30.00F
FORT MADISON * CLEAR     50  43  76 SW3       30.02S
KEOKUK *       CLEAR     48  43  81 SW3       30.01S
OSKALOOSA *      N/A     49  37  64 SW7       30.01S
OTTUMWA        CLEAR     50  38  63 SW5       30.00S
WASHINGTON *   CLEAR     50  37  62 SW6       30.01F
$$

ABBREVIATIONS USED IN REMARKS
   TC - TEMPERATURES IN CELSIUS
  WCI - WIND CHILL INDEX
   HX - HEAT INDEX
  VSB - VISIBILITY
$$





USA.gov is the U.S. government's official web portal to all federal, state and local government web resources and services.